| time (UTC) | temp C | wind direction | speed KPH | gust KPH | rain 1hr cm | rain 24hr cm | rain mn cm | humidity % | barometer mb |
| 20260505051018 | 3 | 360 | 12.9 | 0.0 | 0.00 | 0.00 | 0.00 | 53 | 1014.9 |
| 20260505050518 | 3 | 360 | 12.9 | 0.0 | 0.00 | 0.00 | 0.00 | 53 | 1014.8 |
| 20260505041515 | 3 | 360 | 9.7 | 0.0 | 0.00 | 0.00 | 0.00 | 54 | 1014.6 |
| 20260505041015 | 3 | 360 | 9.7 | 0.0 | 0.00 | 0.00 | 0.00 | 54 | 1014.6 |
| 20260505040516 | 3 | 360 | 9.7 | 0.0 | 0.00 | 0.00 | 0.00 | 54 | 1014.6 |
| 20260505040016 | 3 | 360 | 8.0 | 0.0 | 0.00 | 0.00 | 0.00 | 55 | 1014.5 |
| 20260505035514 | 3 | 360 | 8.0 | 0.0 | 0.00 | 0.00 | 0.00 | 55 | 1014.5 |
| 20260505035017 | 3 | 360 | 8.0 | 0.0 | 0.00 | 0.00 | 0.00 | 55 | 1014.5 |
| 20260505034513 | 3 | 360 | 9.7 | 0.0 | 0.00 | 0.00 | 0.00 | 54 | 1014.5 |
| 20260505034014 | 3 | 360 | 9.7 | 0.0 | 0.00 | 0.00 | 0.00 | 54 | 1014.5 |
| 20260505033516 | 3 | 360 | 11.3 | 0.0 | 0.00 | 0.00 | 0.00 | 54 | 1014.5 |
| 20260505033012 | 3 | 360 | 11.3 | 0.0 | 0.00 | 0.00 | 0.00 | 54 | 1014.4 |
| 20260505032512 | 3 | 360 | 12.9 | 0.0 | 0.00 | 0.00 | 0.00 | 53 | 1014.4 |
| 20260505032010 | 3 | 360 | 14.5 | 0.0 | 0.00 | 0.00 | 0.00 | 53 | 1014.3 |
| 20260505031512 | 3 | 360 | 16.1 | 0.0 | 0.00 | 0.00 | 0.00 | 52 | 1014.3 |
| 20260505031012 | 3 | 360 | 17.7 | 0.0 | 0.00 | 0.00 | 0.00 | 52 | 1014.2 |
| 20260505030510 | 3 | 360 | 20.9 | 0.0 | 0.00 | 0.00 | 0.00 | 52 | 1014.1 |
| 20260505030009 | 3 | 360 | 20.9 | 0.0 | 0.00 | 0.00 | 0.00 | 51 | 1014.1 |
| 20260505025508 | 3 | 360 | 20.9 | 0.0 | 0.00 | 0.00 | 0.00 | 51 | 1014.0 |
| 20260505025006 | 3 | 360 | 19.3 | 0.0 | 0.00 | 0.00 | 0.00 | 52 | 1014.0 |
| 20260505024506 | 3 | 360 | 17.7 | 0.0 | 0.00 | 0.00 | 0.00 | 52 | 1013.9 |
| 20260505024010 | 3 | 360 | 17.7 | 0.0 | 0.00 | 0.00 | 0.00 | 51 | 1013.8 |
| 20260505023504 | 3 | 360 | 19.3 | 0.0 | 0.00 | 0.00 | 0.00 | 51 | 1013.7 |
| 20260505023004 | 3 | 360 | 22.5 | 0.0 | 0.00 | 0.00 | 0.00 | 50 | 1013.6 |
| 20260505022503 | 4 | 360 | 24.1 | 0.0 | 0.00 | 0.00 | 0.00 | 49 | 1013.5 |
| 20260505022006 | 4 | 360 | 22.5 | 0.0 | 0.00 | 0.00 | 0.00 | 49 | 1013.4 |
| 20260505021502 | 4 | 360 | 19.3 | 0.0 | 0.00 | 0.00 | 0.00 | 49 | 1013.2 |
| 20260505021001 | 4 | 360 | 19.3 | 0.0 | 0.00 | 0.00 | 0.00 | 49 | 1013.2 |
| 20260505020501 | 5 | 360 | 19.3 | 0.0 | 0.00 | 0.00 | 0.00 | 48 | 1013.1 |
| 20260505020105 | 5 | 360 | 20.9 | 0.0 | 0.00 | 0.00 | 0.00 | 48 | 1013.0 |
| 20260505015501 | 5 | 360 | 20.9 | 0.0 | 0.00 | 0.00 | 0.00 | 48 | 1012.9 |
| 20260505015001 | 5 | 360 | 20.9 | 0.0 | 0.00 | 0.00 | 0.00 | 47 | 1012.8 |
| 20260505014607 | 5 | 360 | 20.9 | 0.0 | 0.00 | 0.00 | 0.00 | 47 | 1012.8 |
| 20260505014103 | 5 | 360 | 22.5 | 0.0 | 0.00 | 0.00 | 0.00 | 47 | 1012.6 |
| 20260505013558 | 5 | 360 | 24.1 | 0.0 | 0.00 | 0.00 | 0.00 | 47 | 1012.5 |
| 20260505013058 | 5 | 360 | 22.5 | 0.0 | 0.00 | 0.00 | 0.00 | 46 | 1012.4 |
| 20260505012557 | 5 | 360 | 24.1 | 0.0 | 0.00 | 0.00 | 0.00 | 46 | 1012.4 |
| 20260505012056 | 5 | 360 | 25.7 | 0.0 | 0.00 | 0.00 | 0.00 | 45 | 1012.3 |
| 20260505011556 | 5 | 360 | 24.1 | 0.0 | 0.00 | 0.00 | 0.00 | 45 | 1012.2 |
| 20260505011054 | 5 | 360 | 24.1 | 0.0 | 0.00 | 0.00 | 0.00 | 46 | 1012.1 |
| 20260505010554 | 6 | 360 | 25.7 | 0.0 | 0.00 | 0.00 | 0.00 | 46 | 1012.0 |
| 20260505010055 | 6 | 360 | 27.4 | 0.0 | 0.00 | 0.00 | 0.00 | 45 | 1011.9 |
| 20260505005053 | 6 | 360 | 25.7 | 0.0 | 0.00 | 0.00 | 0.00 | 45 | 1011.8 |
| 20260505004556 | 6 | 360 | 27.4 | 0.0 | 0.00 | 0.00 | 0.00 | 45 | 1011.8 |
| 20260505004055 | 6 | 360 | 27.4 | 0.0 | 0.00 | 0.00 | 0.00 | 45 | 1011.8 |
| 20260505003551 | 6 | 360 | 27.4 | 0.0 | 0.00 | 0.00 | 0.00 | 45 | 1011.7 |
| 20260505003053 | 6 | 360 | 27.4 | 0.0 | 0.00 | 0.00 | 0.00 | 45 | 1011.7 |
| 20260505002556 | 6 | 360 | 25.7 | 0.0 | 0.00 | 0.00 | 0.00 | 45 | 1011.7 |
| 20260505002051 | 6 | 360 | 25.7 | 0.0 | 0.00 | 0.00 | 0.00 | 44 | 1011.7 |
| 20260505001550 | 6 | 360 | 29.0 | 0.0 | 0.00 | 0.00 | 0.00 | 44 | 1011.6 |
| 20260505001049 | 6 | 360 | 30.6 | 0.0 | 0.00 | 0.00 | 0.00 | 43 | 1011.5 |
| 20260505000549 | 7 | 360 | 30.6 | 0.0 | 0.00 | 0.00 | 0.00 | 43 | 1011.5 |
| 20260505000055 | 7 | 360 | 30.6 | 0.0 | 0.00 | 0.00 | 0.00 | 43 | 1011.5 |
| 20260504235051 | 7 | 360 | 30.6 | 0.0 | 0.00 | 0.00 | 0.00 | 42 | 1011.4 |
| 20260504234550 | 7 | 360 | 32.2 | 0.0 | 0.00 | 0.00 | 0.00 | 43 | 1011.4 |
| 20260504234049 | 7 | 360 | 32.2 | 0.0 | 0.00 | 0.00 | 0.00 | 43 | 1011.2 |
| 20260504233549 | 7 | 360 | 32.2 | 0.0 | 0.00 | 0.00 | 0.00 | 43 | 1011.1 |
| 20260504233049 | 7 | 360 | 30.6 | 0.0 | 0.00 | 0.00 | 0.00 | 42 | 1011.2 |
| 20260504232651 | 8 | 360 | 29.0 | 0.0 | 0.00 | 0.00 | 0.00 | 41 | 1011.1 |
| 20260504232049 | 8 | 360 | 29.0 | 0.0 | 0.00 | 0.00 | 0.00 | 41 | 1011.0 |
| 20260504231547 | 8 | 360 | 30.6 | 0.0 | 0.00 | 0.00 | 0.00 | 40 | 1011.0 |
| 20260504231046 | 8 | 360 | 29.0 | 0.0 | 0.00 | 0.00 | 0.00 | 40 | 1010.9 |
| 20260504230549 | 8 | 360 | 30.6 | 0.0 | 0.00 | 0.00 | 0.00 | 40 | 1010.7 |
| 20260504230050 | 8 | 360 | 29.0 | 0.0 | 0.00 | 0.00 | 0.00 | 41 | 1010.6 |
| 20260504225045 | 8 | 360 | 29.0 | 0.0 | 0.00 | 0.00 | 0.00 | 42 | 1010.6 |
| 20260504224548 | 8 | 360 | 32.2 | 0.0 | 0.00 | 0.00 | 0.00 | 41 | 1010.6 |
| 20260504224048 | 8 | 360 | 30.6 | 0.0 | 0.00 | 0.00 | 0.00 | 39 | 1010.5 |
| 20260504223547 | 9 | 360 | 27.4 | 0.0 | 0.00 | 0.00 | 0.00 | 40 | 1010.4 |
| 20260504223045 | 8 | 360 | 27.4 | 0.0 | 0.00 | 0.00 | 0.00 | 40 | 1010.5 |
| 20260504222547 | 8 | 360 | 29.0 | 0.0 | 0.00 | 0.00 | 0.00 | 41 | 1010.6 |
| 20260504222044 | 9 | 360 | 27.4 | 0.0 | 0.00 | 0.00 | 0.00 | 39 | 1010.4 |
| 20260504221545 | 9 | 360 | 25.7 | 0.0 | 0.00 | 0.00 | 0.00 | 41 | 1010.4 |
| 20260504221044 | 9 | 360 | 25.7 | 0.0 | 0.00 | 0.00 | 0.00 | 41 | 1010.4 |
| 20260504220544 | 9 | 360 | 27.4 | 0.0 | 0.00 | 0.00 | 0.00 | 42 | 1010.4 |
| 20260504220045 | 8 | 360 | 29.0 | 0.0 | 0.00 | 0.00 | 0.00 | 41 | 1010.4 |
| 20260504215045 | 8 | 360 | 30.6 | 0.0 | 0.00 | 0.00 | 0.00 | 42 | 1010.5 |
| 20260504214553 | 8 | 360 | 27.4 | 0.0 | 0.00 | 0.00 | 0.00 | 42 | 1010.3 |
| 20260504214044 | 8 | 360 | 24.1 | 0.0 | 0.00 | 0.00 | 0.00 | 41 | 1010.3 |
| 20260504213544 | 10 | 360 | 25.7 | 0.0 | 0.00 | 0.00 | 0.00 | 38 | 1010.4 |
| 20260504213043 | 9 | 360 | 24.1 | 0.0 | 0.00 | 0.00 | 0.00 | 42 | 1010.4 |
| 20260504212543 | 8 | 360 | 22.5 | 0.0 | 0.00 | 0.00 | 0.00 | 46 | 1010.4 |
| 20260504212045 | 8 | 360 | 24.1 | 0.0 | 0.00 | 0.00 | 0.00 | 49 | 1010.5 |
| 20260504211543 | 7 | 360 | 22.5 | 0.0 | 0.00 | 0.00 | 0.00 | 51 | 1010.6 |
| 20260504211043 | 7 | 360 | 22.5 | 0.0 | 0.00 | 0.00 | 0.00 | 50 | 1010.6 |
| 20260504210543 | 7 | 360 | 20.9 | 0.0 | 0.00 | 0.00 | 0.00 | 52 | 1010.6 |
| 20260504210055 | 7 | 360 | 20.9 | 0.0 | 0.00 | 0.00 | 0.00 | 53 | 1010.7 |
| 20260504205042 | 7 | 360 | 22.5 | 0.0 | 0.00 | 0.00 | 0.00 | 53 | 1010.8 |
| 20260504204557 | 7 | 360 | 24.1 | 0.0 | 0.00 | 0.00 | 0.00 | 51 | 1010.8 |
| 20260504204042 | 7 | 360 | 24.1 | 0.0 | 0.00 | 0.00 | 0.00 | 51 | 1010.7 |
| 20260504203542 | 7 | 360 | 24.1 | 0.0 | 0.00 | 0.00 | 0.00 | 51 | 1010.6 |
| 20260504203044 | 7 | 360 | 24.1 | 0.0 | 0.00 | 0.00 | 0.00 | 51 | 1010.6 |
| 20260504202542 | 7 | 360 | 24.1 | 0.0 | 0.00 | 0.00 | 0.00 | 51 | 1010.7 |
| 20260504202042 | 7 | 360 | 25.7 | 0.0 | 0.00 | 0.00 | 0.00 | 51 | 1010.6 |
| 20260504201541 | 7 | 360 | 25.7 | 0.0 | 0.00 | 0.00 | 0.00 | 50 | 1010.6 |
| 20260504201041 | 7 | 360 | 25.7 | 0.0 | 0.00 | 0.00 | 0.00 | 51 | 1010.6 |
| 20260504200541 | 7 | 360 | 25.7 | 0.0 | 0.00 | 0.00 | 0.00 | 50 | 1010.6 |
| 20260504200040 | 7 | 360 | 25.7 | 0.0 | 0.00 | 0.00 | 0.00 | 50 | 1010.6 |
| 20260504195041 | 7 | 360 | 24.1 | 0.0 | 0.00 | 0.00 | 0.00 | 49 | 1010.5 |
| 20260504194539 | 7 | 360 | 25.7 | 0.0 | 0.00 | 0.00 | 0.00 | 49 | 1010.6 |
| 20260504194039 | 7 | 360 | 25.7 | 0.0 | 0.00 | 0.00 | 0.00 | 49 | 1010.6 |
| 20260504193538 | 7 | 360 | 24.1 | 0.0 | 0.00 | 0.00 | 0.00 | 48 | 1010.5 |
| 20260504193038 | 7 | 360 | 24.1 | 0.0 | 0.00 | 0.00 | 0.00 | 47 | 1010.5 |
| 20260504192537 | 7 | 360 | 25.7 | 0.0 | 0.00 | 0.00 | 0.00 | 46 | 1010.4 |
| 20260504192037 | 7 | 360 | 29.0 | 0.0 | 0.00 | 0.00 | 0.00 | 45 | 1010.4 |
| 20260504191537 | 8 | 360 | 27.4 | 0.0 | 0.00 | 0.00 | 0.00 | 43 | 1010.3 |
| 20260504191037 | 8 | 360 | 25.7 | 0.0 | 0.00 | 0.00 | 0.00 | 45 | 1010.2 |
| 20260504190537 | 7 | 360 | 25.7 | 0.0 | 0.00 | 0.00 | 0.00 | 46 | 1010.3 |
| 20260504190036 | 7 | 360 | 24.1 | 0.0 | 0.00 | 0.00 | 0.00 | 44 | 1010.3 |
| 20260504185040 | 7 | 360 | 22.5 | 0.0 | 0.00 | 0.00 | 0.00 | 46 | 1010.3 |
| 20260504184537 | 7 | 360 | 22.5 | 0.0 | 0.00 | 0.00 | 0.00 | 47 | 1010.3 |
| 20260504184037 | 7 | 360 | 22.5 | 0.0 | 0.00 | 0.00 | 0.00 | 47 | 1010.3 |
| 20260504183537 | 7 | 360 | 22.5 | 0.0 | 0.00 | 0.00 | 0.00 | 48 | 1010.3 |
| 20260504183036 | 7 | 360 | 22.5 | 0.0 | 0.00 | 0.00 | 0.00 | 48 | 1010.4 |
| 20260504182536 | 7 | 360 | 22.5 | 0.0 | 0.00 | 0.00 | 0.00 | 48 | 1010.3 |
| 20260504182037 | 7 | 360 | 22.5 | 0.0 | 0.00 | 0.00 | 0.00 | 49 | 1010.4 |
| 20260504181536 | 6 | 360 | 24.1 | 0.0 | 0.00 | 0.00 | 0.00 | 49 | 1010.4 |
| 20260504181036 | 6 | 360 | 25.7 | 0.0 | 0.00 | 0.00 | 0.00 | 48 | 1010.3 |
| 20260504180536 | 7 | 360 | 27.4 | 0.0 | 0.00 | 0.00 | 0.00 | 48 | 1010.3 |
| 20260504180036 | 6 | 360 | 25.7 | 0.0 | 0.00 | 0.00 | 0.00 | 49 | 1010.4 |
| 20260504175035 | 6 | 360 | 27.4 | 0.0 | 0.00 | 0.00 | 0.00 | 48 | 1010.2 |
| 20260504174537 | 6 | 360 | 27.4 | 0.0 | 0.00 | 0.00 | 0.00 | 47 | 1010.3 |
| 20260504174034 | 7 | 360 | 29.0 | 0.0 | 0.00 | 0.00 | 0.00 | 46 | 1010.1 |
| 20260504173533 | 7 | 360 | 29.0 | 0.0 | 0.00 | 0.00 | 0.00 | 45 | 1010.1 |
| 20260504173039 | 7 | 360 | 29.0 | 0.0 | 0.00 | 0.00 | 0.00 | 48 | 1010.0 |
| 20260504172534 | 7 | 360 | 30.6 | 0.0 | 0.00 | 0.00 | 0.00 | 48 | 1010.1 |
| 20260504172032 | 7 | 360 | 32.2 | 0.0 | 0.00 | 0.00 | 0.00 | 48 | 1010.1 |
| 20260504171532 | 7 | 360 | 32.2 | 0.0 | 0.00 | 0.00 | 0.00 | 48 | 1009.9 |
| 20260504171033 | 7 | 360 | 32.2 | 0.0 | 0.00 | 0.00 | 0.00 | 51 | 1009.9 |
| 20260504170532 | 7 | 360 | 29.0 | 0.0 | 0.00 | 0.00 | 0.00 | 52 | 1009.9 |
| 20260504151023 | 6 | 360 | 25.7 | 0.0 | 0.00 | 0.00 | 0.00 | 63 | 1008.9 |
| 20260504150523 | 6 | 360 | 25.7 | 0.0 | 0.00 | 0.00 | 0.00 | 63 | 1008.9 |
| 20260504141020 | 7 | 360 | 19.3 | 0.0 | 0.00 | 0.00 | 0.00 | 58 | 1008.7 |
| 20260504140521 | 7 | 360 | 17.7 | 0.0 | 0.00 | 0.00 | 0.00 | 59 | 1008.7 |
| 20260504130519 | 5 | 360 | 19.3 | 0.0 | 0.00 | 0.00 | 0.00 | 65 | 1008.6 |
| 20260504110558 | 6 | 360 | 20.9 | 0.0 | 0.00 | 0.00 | 0.00 | 57 | 1007.1 |
| 20260504100550 | 7 | 360 | 20.9 | 0.0 | 0.00 | 0.00 | 0.00 | 53 | 1006.6 |
| 20260504081534 | 9 | 360 | 20.9 | 0.0 | 0.00 | 0.00 | 0.00 | 46 | 1005.9 |
| 20260504081030 | 9 | 360 | 19.3 | 0.0 | 0.00 | 0.00 | 0.00 | 46 | 1005.7 |
| 20260504080529 | 9 | 360 | 17.7 | 0.0 | 0.00 | 0.00 | 0.00 | 47 | 1005.6 |